{"data":{"norad_id":59657,"intl_designator":"2024-084D","name":"STARLINK-31904","alt_names":[],"object_type":"PAYLOAD","status":"ACTIVE","operator":null,"country":"US","launch_date":"2024-05-06","launch_site_code":"AFETR","launch_vehicle":null,"mission":null,"orbit_class":"UNKNOWN","rcs_meters":null,"size_class":null,"mass_kg":null,"dimensions":null,"purposes":["comms"],"wikipedia_slug":null,"has_3d_model":false,"image_url":null,"decayed_at":null,"tle_current":{"epoch":"2026-05-25T04:48:14.514336Z","epoch_age_seconds":60872,"freshness":"FRESH","line1":"1 59657U 24084D   26145.20016799 -.00000296  00000+0 -12241-5 0  9995","line2":"2 59657  43.0053 329.7778 0002320 263.0564  97.0024 15.27579977116071","mean_motion":15.27579977,"eccentricity":0.000232,"inclination_deg":43.0053,"raan_deg":329.7778,"arg_perigee_deg":263.0564,"mean_anomaly_deg":97.0024,"bstar":-1.2241e-6,"rev_number":11607,"period_min":94.266750132978,"perigee_km":481.45736971967,"apogee_km":484.64096010019,"semimajor_km":6861.1861649099,"source":"CELESTRAK","updated_at":"2026-05-25T13:38:19.018019Z"}}}